Weather History for Show Low, AZ

Change the Weather History Date:

Wednesday, May 1, 2013

  Actual Average Record
Temperature  
Mean Temperature 58 °F -  
Max Temperature 73 °F 66 °F 77 °F (1992)
Min Temperature 39 °F 46 °F 14 °F (1967)
Degree Days  
Heating Degree Days 8    
Growing Degree Days 8 (Base 50)    
Moisture  
Dew Point 13 °F    
Average Humidity 18    
Maximum Humidity 29    
Minimum Humidity 10    
Precipitation  
Precipitation 0.00 in - - ()
Sea Level Pressure  
Sea Level Pressure 30.14 in    
Wind  
Wind Speed 11 mph (SW)    
Max Wind Speed 20 mph    
Max Gust Speed 24 mph    
Visibility 10 miles    
Events      
Averages and records for this station are not official NWS values.
T = Trace of Precipitation, MM = Missing Value Source: NWS Daily Summary

Daily Weather History Graph

Daily Weather History Graph

Search for Another Location

Airport:

Trip Planner

Search our weather history database for the weather conditions in past years. The results will help you decide how hot, cold, wet, or windy it might be!

Date:

Astronomy

May. 01, 2013 Rise Set
Actual Time 5:30 AM MST 7:04 PM MST
Civil Twilight 5:03 AM MST 7:31 PM MST
Nautical Twilight 4:31 AM MST 8:03 PM MST
Astronomical Twilight 3:57 AM MST 8:37 PM MST
Moon 12:15 AM MST (5/1) 11:12 AM MST (5/1)
Length of Visible Light 14h 28m
Length of Day
13h 34m
Waning Gibbous, 58% of the Moon is Illuminated
May 1
Waning Gibbous
May 2
Last Quarter
May 9
New
May 17
First Quarter
May 24
Full

Hourly Weather History & Observations

Time (MST) Temp. Windchill Dew Point Humidity Pressure Visibility Wind Dir Wind Speed Gust Speed Precip Events Conditions
12:15 AM 50.0 °F - 14.0 °F 24% 30.04 in 10.0 mi SSW 11.5 mph - N/A   Clear
12:35 AM 50.0 °F - 14.0 °F 24% 30.04 in 10.0 mi SSW 10.4 mph - N/A   Clear
12:55 AM 51.8 °F - 14.0 °F 22% 30.04 in 10.0 mi SSW 10.4 mph - N/A   Clear
1:15 AM 50.0 °F - 14.0 °F 24% 30.04 in 10.0 mi South 8.1 mph - N/A   Clear
1:35 AM 50.0 °F - 14.0 °F 24% 30.04 in 10.0 mi South 10.4 mph - N/A   Clear
1:55 AM 50.0 °F - 14.0 °F 24% 30.04 in 10.0 mi South 11.5 mph - N/A   Clear
2:15 AM 48.2 °F - 14.0 °F 25% 30.04 in 10.0 mi South 10.4 mph - N/A   Clear
2:35 AM 48.2 °F - 14.0 °F 25% 30.05 in 10.0 mi South 9.2 mph - N/A   Clear
2:55 AM 46.4 °F 43.5 °F 14.0 °F 27% 30.06 in 10.0 mi SSW 5.8 mph - N/A   Clear
3:15 AM 48.2 °F - 15.8 °F 27% 30.06 in 10.0 mi South 9.2 mph - N/A   Clear
3:35 AM 48.2 °F - 15.8 °F 27% 30.06 in 10.0 mi South 8.1 mph - N/A   Clear
3:55 AM 46.4 °F 42.4 °F 14.0 °F 27% 30.06 in 10.0 mi South 8.1 mph - N/A   Clear
4:15 AM 46.4 °F 41.1 °F 15.8 °F 29% 30.06 in 10.0 mi South 11.5 mph - N/A   Clear
4:35 AM 46.4 °F 41.1 °F 15.8 °F 29% 30.07 in 10.0 mi South 11.5 mph - N/A   Clear
4:55 AM 48.2 °F - 15.8 °F 27% 30.07 in 10.0 mi South 10.4 mph - N/A   Clear
5:15 AM 46.4 °F 42.4 °F 15.8 °F 29% 30.08 in 10.0 mi SSW 8.1 mph - N/A   Clear
5:35 AM 46.4 °F 41.1 °F 15.8 °F 29% 30.08 in 10.0 mi South 11.5 mph - N/A   Clear
5:55 AM 48.2 °F - 15.8 °F 27% 30.09 in 10.0 mi South 11.5 mph - N/A   Clear
6:15 AM 48.2 °F - 15.8 °F 27% 30.09 in 10.0 mi South 11.5 mph - N/A   Clear
6:35 AM 51.8 °F - 17.6 °F 26% 30.10 in 10.0 mi South 11.5 mph - N/A   Clear
6:55 AM 53.6 °F - 17.6 °F 24% 30.10 in 10.0 mi South 11.5 mph - N/A   Clear
7:15 AM 55.4 °F - 17.6 °F 23% 30.10 in 10.0 mi South 11.5 mph - N/A   Clear
7:35 AM 57.2 °F - 17.6 °F 21% 30.11 in 10.0 mi SSW 15.0 mph 18.4 mph N/A   Clear
7:55 AM 59.0 °F - 17.6 °F 20% 30.11 in 10.0 mi South 16.1 mph - N/A   Clear
8:15 AM 59.0 °F - 17.6 °F 20% 30.11 in 10.0 mi SSW 16.1 mph 24.2 mph N/A   Clear
8:35 AM 60.8 °F - 19.4 °F 20% 30.12 in 10.0 mi SSW 16.1 mph 24.2 mph N/A   Clear
8:55 AM 62.6 °F - 19.4 °F 19% 30.12 in 10.0 mi SSW 19.6 mph 24.2 mph N/A   Clear
9:15 AM 62.6 °F - 17.6 °F 18% 30.14 in 10.0 mi WSW 13.8 mph 23.0 mph N/A   Clear
9:35 AM 62.6 °F - 17.6 °F 18% 30.14 in 10.0 mi WSW 16.1 mph 19.6 mph N/A   Clear
9:55 AM 64.4 °F - 15.8 °F 15% 30.15 in 10.0 mi SW 15.0 mph - N/A   Clear
10:15 AM 64.4 °F - 17.6 °F 16% 30.15 in 10.0 mi West 10.4 mph - N/A   Clear
10:35 AM 64.4 °F - 17.6 °F 16% 30.16 in 10.0 mi WSW 10.4 mph 17.3 mph N/A   Clear
10:55 AM 64.4 °F - 15.8 °F 15% 30.16 in 10.0 mi SSW 8.1 mph - N/A   Clear
11:15 AM 66.2 °F - 17.6 °F 15% 30.15 in 10.0 mi WSW 10.4 mph 19.6 mph N/A   Clear
11:35 AM 66.2 °F - 17.6 °F 15% 30.15 in 10.0 mi WSW 9.2 mph - N/A   Clear
11:55 AM 68.0 °F - 15.8 °F 13% 30.14 in 10.0 mi SW 6.9 mph - N/A   Clear
12:15 PM 68.0 °F - 15.8 °F 13% 30.14 in 10.0 mi SSW 12.7 mph 18.4 mph N/A   Clear
12:35 PM 68.0 °F - 14.0 °F 12% 30.14 in 10.0 mi SSW 6.9 mph 16.1 mph N/A   Clear
12:55 PM 69.8 °F - 14.0 °F 12% 30.14 in 10.0 mi WSW 9.2 mph - N/A   Clear
1:15 PM 71.6 °F - 14.0 °F 11% 30.14 in 10.0 mi SW 12.7 mph 18.4 mph N/A   Clear
1:35 PM 71.6 °F - 14.0 °F 11% 30.14 in 10.0 mi SW 12.7 mph 20.7 mph N/A   Clear
1:55 PM 71.6 °F - 15.8 °F 12% 30.13 in 10.0 mi SW 13.8 mph 17.3 mph N/A   Clear
2:15 PM 71.6 °F - 15.8 °F 12% 30.13 in 10.0 mi SW 12.7 mph 17.3 mph N/A   Clear
2:35 PM 71.6 °F - 14.0 °F 11% 30.12 in 10.0 mi SSW 15.0 mph 23.0 mph N/A   Clear
2:55 PM 73.4 °F - 14.0 °F 10% 30.12 in 10.0 mi SSW 11.5 mph 23.0 mph N/A   Clear
3:15 PM 71.6 °F - 15.8 °F 12% 30.12 in 10.0 mi West 10.4 mph 19.6 mph N/A   Clear
3:35 PM 73.4 °F - 14.0 °F 10% 30.11 in 10.0 mi SW 15.0 mph - N/A   Clear
3:55 PM 73.4 °F - 15.8 °F 11% 30.11 in 10.0 mi West 13.8 mph 23.0 mph N/A   Clear
4:15 PM 71.6 °F - 15.8 °F 12% 30.12 in 10.0 mi WSW 11.5 mph 19.6 mph N/A   Clear
4:35 PM 71.6 °F - 15.8 °F 12% 30.12 in 10.0 mi WSW 8.1 mph - N/A   Clear
4:55 PM 71.6 °F - 15.8 °F 12% 30.12 in 10.0 mi SW 13.8 mph 19.6 mph N/A   Clear
5:15 PM 71.6 °F - 15.8 °F 12% 30.12 in 10.0 mi SW 13.8 mph - N/A   Clear
5:35 PM 71.6 °F - 15.8 °F 12% 30.13 in 10.0 mi SSW 12.7 mph - N/A   Clear
5:55 PM 68.0 °F - 17.6 °F 15% 30.13 in 10.0 mi SW 11.5 mph - N/A   Clear
6:15 PM 68.0 °F - 17.6 °F 15% 30.14 in 10.0 mi SW 12.7 mph - N/A   Clear
6:35 PM 66.2 °F - 17.6 °F 15% 30.15 in 10.0 mi WSW 10.4 mph 18.4 mph N/A   Clear
6:55 PM 64.4 °F - 19.4 °F 18% 30.16 in 10.0 mi SW 11.5 mph - N/A   Clear
7:15 PM 62.6 °F - 17.6 °F 18% 30.17 in 10.0 mi NNW 9.2 mph - N/A   Clear
7:35 PM 62.6 °F - 15.8 °F 16% 30.18 in 10.0 mi North 5.8 mph - N/A   Clear
7:55 PM 59.0 °F - 14.0 °F 17% 30.19 in 10.0 mi NNW 6.9 mph - N/A   Clear
8:15 PM 57.2 °F - 8.6 °F 14% 30.20 in 10.0 mi NNW 6.9 mph - N/A   Clear
8:35 PM 57.2 °F - 6.8 °F 13% 30.22 in 10.0 mi NNW 4.6 mph - N/A   Clear
8:55 PM 55.4 °F - 6.8 °F 14% 30.23 in 10.0 mi NW 5.8 mph - N/A   Clear
9:15 PM 55.4 °F - 3.2 °F 12% 30.25 in 10.0 mi North 9.2 mph - N/A   Clear
9:35 PM 53.6 °F - -0.4 °F 11% 30.27 in 10.0 mi North 10.4 mph - N/A   Clear
9:55 PM 50.0 °F - -2.2 °F 12% 30.29 in 10.0 mi North 10.4 mph - N/A   Clear
10:15 PM 48.2 °F - -2.2 °F 12% 30.30 in 10.0 mi North 10.4 mph - N/A   Clear
10:35 PM 46.4 °F 41.5 °F -2.2 °F 13% 30.31 in 10.0 mi North 10.4 mph - N/A   Clear
10:55 PM 46.4 °F 41.1 °F -2.2 °F 13% 30.32 in 10.0 mi North 11.5 mph - N/A   Clear
11:15 PM 44.6 °F 38.8 °F -2.2 °F 14% 30.33 in 10.0 mi North 11.5 mph - N/A   Clear
11:35 PM 42.8 °F 38.0 °F -2.2 °F 15% 30.34 in 10.0 mi North 8.1 mph - N/A   Clear
11:55 PM 39.2 °F 33.6 °F -2.2 °F 17% 30.35 in 10.0 mi North 8.1 mph - N/A   Clear